星链-35165(STARLINK-35165)

导读

STARLINK-35165是美国太空探索技术公司(SpaceX)星链(Starlink)计划中的卫星,于2025年9月25日发射升空。星链计划旨在构建全球卫星互联网星座,为全球偏远地区及地面网络覆盖不足区域提供高速互联网接入服务,该卫星加入星座后将进一步拓展星链的全球服务覆盖范围。

基本信息
目录编号:
65750
目录名称:
STARLINK-35165
国际标识:
2025-216S
轨道中心:
EARTH
卫星名称:
星链-35165
卫星全名:
星链-35165(STARLINK-35165)
卫星状态:
在轨 (已飞行353 天)
发射日期:
2025-09-25 UTC
国别 :
美国 (US)
星等 :
--
该卫星已列入 空间交会检测服务 Space Conjunction Data Service (SCDS) ,当前飞行风险评估等级: 无高风险
轨道信息
数据来源 国际轨道数据
星历时间: 2026-09-12T13:00:25+0800
1天前
查看轨道信息
半长轴: 6840.815km
偏心率: 0.0000936
轨道倾角: 53.159°
近地点辐角 88.582°
升交点赤经 184.178°
平近点角 271.529°
近地点: 462.037km
远地点: 463.319km
周期: 93.847分钟
每日圈数: 15.344087
详细信息
固有亮度:
5
最大亮度:
2.5
卫星平台:
Starlink V1.0
覆盖范围:
全球
运营商:
太空探索技术公司
运营商所在国:
美国
制造商(研发单位):
太空探索技术公司
制造商所在国:
美国
使用方式:
暂无
卫星简介
Starlink 计划是 SpaceX 推出的全球卫星互联网项目,通过发射低轨道卫星,为全球尤其是偏远地区提供高速、低延迟的互联网服务。自 2019 年起,Starlink 已部署数千颗卫星,旨在缩小全球数字鸿沟,推动互联网普及。该项目还为军事、航空等行业提供通信支持,带来广泛经济效益。
2D轨道图
3D轨道图
轨道高度分析图
轨道倾角分析图
轨道综合分析图
查看轨道综合分析图
交会数据列表
事件ID 空间交会对象 最接近时刻(TCA) 交会距离 交会风险概率(CRP) 交会风险指数(CRI) 操作
CDM_260915-034505-422806-575021
2026-09-15T
03:45:56+0000
2.057 km
极远距离
2.405076E-6 低风险 0.43
CDM_260915-060106-092006-575021
2026-09-15T
06:01:13+0000
2.002 km
极远距离
1.448953E-6 低风险 0.38
CDM_260907-132901-927406-575022
OKEAN 1 (19274)
2026-09-07T
13:29:15+0000
2.888 km
极远距离
1.292969E-6 低风险 0.37
CDM_260915-042706-092006-575021
2026-09-15T
04:27:25+0000
2.627 km
极远距离
8.600531E-7 极低风险 0.34
与全量物体交会距离演化趋势
与全量物体交会风险概率演化趋势